Westminster, MD

3:09 AM EST on November 13, 2019 (GMT -0500)
Carroll County Regional-Poage

Weather History for KDMW - September, 2019

Change the Weather History Date:

Wednesday, September 11, 2019

  Actual Average (KTHV) Record (KTHV)
Temperature  
Mean Temperature 82 °F -  
Max Temperature 96 °F 0 °F 93 °F (2013)
Min Temperature 68 °F - 42 °F (2017)
Cooling Degree Days 17    
Growing Degree Days 32 (Base 50)    
Moisture  
Dew Point 69 °F    
Average Humidity 72    
Maximum Humidity 94    
Minimum Humidity 41    
Precipitation  
Precipitation 0.00 in - - ()
Sea Level Pressure  
Sea Level Pressure 30.18 in    
Wind  
Wind Speed 5 mph (SSW)    
Max Wind Speed 12 mph    
Max Gust Speed -    
Visibility 10 miles    
Events Thunderstorm    
Averages and records for this station are not official NWS values.
T = Trace of Precipitation, MM = Missing Value Source: NWS Daily Summary

Daily Weather History Graph

Daily Weather History Graph

Search for Another Location

Airport or City:

Astronomy

Sep. 11, 2019 Rise Set
Actual Time 6:45 AM EDT 7:23 PM EDT
Civil Twilight 6:18 AM EDT 7:50 PM EDT
Nautical Twilight 5:45 AM EDT 8:22 PM EDT
Astronomical Twilight 5:12 AM EDT 8:55 PM EDT
Moon 6:33 PM EDT (9/11) 4:06 AM EDT (9/11)
Length of Visible Light 13h 32m
Length of Day
12h 38m
Waxing Gibbous, 94% of the Moon is Illuminated
Sep 11
Waxing Gibbous
Sep 14
Full
Sep 21
Last Quarter
Sep 28
New
Oct 5
First Quarter

Hourly Weather History & Observations

Time (EDT) Temp. Heat Index Dew Point Humidity Pressure Visibility Wind Dir Wind Speed Gust Speed Precip Events Conditions
12:00 AM 71.6 °F - 64.4 °F 78% 30.28 in 10.0 mi South 6.9 mph - N/A   Clear
12:20 AM 71.6 °F - 64.4 °F 78% 30.27 in 10.0 mi South 4.6 mph - N/A   Clear
12:40 AM 71.6 °F - 64.4 °F 78% 30.28 in 10.0 mi South 5.8 mph - N/A   Clear
1:00 AM 71.6 °F - 64.4 °F 78% 30.28 in 10.0 mi South 5.8 mph - N/A   Clear
1:20 AM 69.8 °F - 64.4 °F 83% 30.28 in 10.0 mi South 4.6 mph - N/A   Clear
1:40 AM 69.8 °F - 64.4 °F 83% 30.27 in 10.0 mi South 5.8 mph - N/A   Clear
2:00 AM 69.8 °F - 64.4 °F 83% 30.27 in 10.0 mi South 4.6 mph - N/A   Clear
2:20 AM 69.8 °F - 64.4 °F 83% 30.26 in 10.0 mi South 5.8 mph - N/A   Clear
2:40 AM 69.8 °F - 64.4 °F 83% 30.25 in 10.0 mi South 6.9 mph - N/A   Clear
3:00 AM 69.8 °F - 64.4 °F 83% 30.25 in 10.0 mi South 4.6 mph - N/A   Clear
3:20 AM 69.8 °F - 66.2 °F 88% 30.24 in 10.0 mi South 6.9 mph - N/A   Clear
3:40 AM 69.8 °F - 64.4 °F 83% 30.24 in 10.0 mi South 5.8 mph - N/A   Clear
4:20 AM 69.8 °F - 66.2 °F 88% 30.24 in 10.0 mi South 5.8 mph - N/A   Clear
4:40 AM 69.8 °F - 66.2 °F 88% 30.23 in 10.0 mi South 5.8 mph - N/A   Clear
5:00 AM 68.0 °F - 66.2 °F 94% 30.24 in 10.0 mi South 5.8 mph - N/A   Clear
5:20 AM 68.0 °F - 66.2 °F 94% 30.24 in 10.0 mi South 5.8 mph - N/A   Clear
5:40 AM 68.0 °F - 66.2 °F 94% 30.24 in 10.0 mi South 5.8 mph - N/A   Clear
6:00 AM 68.0 °F - 66.2 °F 94% 30.23 in 10.0 mi South 5.8 mph - N/A   Clear
6:20 AM 68.0 °F - 66.2 °F 94% 30.24 in 10.0 mi South 5.8 mph - N/A   Clear
6:40 AM 69.8 °F - 66.2 °F 88% 30.24 in 7.0 mi South 4.6 mph - N/A   Scattered Clouds
7:00 AM 68.0 °F - 66.2 °F 94% 30.24 in 5.0 mi South 6.9 mph - N/A   Mostly Cloudy
7:20 AM 69.8 °F - 66.2 °F 88% 30.24 in 5.0 mi South 4.6 mph - N/A   Overcast
7:40 AM 69.8 °F - 68.0 °F 94% 30.24 in 7.0 mi South 5.8 mph - N/A   Overcast
8:00 AM 69.8 °F - 68.0 °F 94% 30.25 in 7.0 mi South 5.8 mph - N/A   Overcast
8:20 AM 71.6 °F - 68.0 °F 88% 30.25 in 10.0 mi SSW 6.9 mph - N/A   Overcast
8:40 AM 71.6 °F - 68.0 °F 88% 30.25 in 10.0 mi SSW 4.6 mph - N/A   Overcast
9:00 AM 71.6 °F - 68.0 °F 88% 30.25 in 10.0 mi SSW 6.9 mph - N/A   Overcast
9:20 AM 73.4 °F - 69.8 °F 88% 30.25 in 10.0 mi South 4.6 mph - N/A   Mostly Cloudy
9:40 AM 75.2 °F - 69.8 °F 83% 30.24 in 10.0 mi SSW 5.8 mph - N/A   Scattered Clouds
10:00 AM 75.2 °F - 69.8 °F 83% 30.24 in 10.0 mi SW 4.6 mph - N/A   Clear
10:20 AM 77.0 °F - 69.8 °F 78% 30.24 in 10.0 mi SW 6.9 mph - N/A   Clear
10:40 AM 78.8 °F - 69.8 °F 74% 30.23 in 10.0 mi SW 6.9 mph - N/A   Clear
11:00 AM 80.6 °F 84.6 °F 71.6 °F 74% 30.22 in 10.0 mi SW 6.9 mph - N/A   Clear
11:20 AM 82.4 °F 87.2 °F 71.6 °F 70% 30.22 in 10.0 mi SW 6.9 mph - N/A   Clear
11:40 AM 84.2 °F 89.6 °F 71.6 °F 66% 30.21 in 10.0 mi SW 5.8 mph - N/A   Clear
12:00 PM 84.2 °F 89.6 °F 71.6 °F 66% 30.20 in 10.0 mi SW 6.9 mph - N/A   Clear
12:20 PM 87.8 °F 92.6 °F 69.8 °F 55% 30.20 in 10.0 mi SW 5.8 mph - N/A   Clear
12:40 PM 86.0 °F 91.8 °F 71.6 °F 62% 30.19 in 10.0 mi SW 3.5 mph - N/A   Clear
1:00 PM 87.8 °F 92.6 °F 69.8 °F 55% 30.18 in 10.0 mi Calm Calm - N/A   Clear
1:20 PM 87.8 °F 92.6 °F 69.8 °F 55% 30.17 in 10.0 mi Calm Calm - N/A   Clear
1:40 PM 89.6 °F 94.7 °F 69.8 °F 52% 30.16 in 10.0 mi WSW 3.5 mph - N/A   Clear
2:00 PM 91.4 °F 96.8 °F 69.8 °F 49% 30.15 in 10.0 mi WSW 6.9 mph - N/A   Clear
2:20 PM 91.4 °F 96.8 °F 69.8 °F 49% 30.14 in 10.0 mi WSW 6.9 mph - N/A   Clear
2:40 PM 93.2 °F 98.8 °F 69.8 °F 46% 30.13 in 10.0 mi WSW 4.6 mph - N/A   Clear
3:00 PM 93.2 °F 98.8 °F 69.8 °F 46% 30.12 in 10.0 mi West 6.9 mph - N/A   Clear
3:20 PM 93.2 °F 98.8 °F 69.8 °F 46% 30.11 in 10.0 mi West 11.5 mph - N/A   Clear
3:40 PM 95.0 °F 101.3 °F 69.8 °F 44% 30.10 in 10.0 mi WSW 8.1 mph - N/A   Clear
4:00 PM 96.8 °F 103.1 °F 69.8 °F 41% 30.09 in 10.0 mi SW 9.2 mph - N/A   Clear
4:20 PM 93.2 °F 98.8 °F 69.8 °F 46% 30.09 in 10.0 mi West 6.9 mph - N/A   Clear
4:40 PM 91.4 °F 96.8 °F 69.8 °F 49% 30.09 in 10.0 mi SSW 6.9 mph - N/A   Clear
5:00 PM 91.4 °F 96.8 °F 69.8 °F 49% 30.09 in 10.0 mi SW 4.6 mph - N/A   Clear
5:20 PM 91.4 °F 98.4 °F 71.6 °F 52% 30.08 in 10.0 mi SSW 6.9 mph - N/A   Clear
5:40 PM 91.4 °F 98.4 °F 71.6 °F 52% 30.08 in 10.0 mi SSW 3.5 mph - N/A   Clear
6:00 PM 89.6 °F 96.2 °F 71.6 °F 55% 30.09 in 10.0 mi NW 3.5 mph - N/A Thunderstorm Mostly Cloudy
6:20 PM 87.8 °F 93.8 °F 71.6 °F 58% 30.10 in 10.0 mi Calm Calm - N/A Thunderstorm Scattered Clouds
6:40 PM 87.8 °F 93.8 °F 71.6 °F 58% 30.09 in 10.0 mi Calm Calm - N/A Thunderstorm Scattered Clouds
7:00 PM 87.8 °F 93.8 °F 71.6 °F 58% 30.10 in 10.0 mi Calm Calm - N/A   Scattered Clouds
7:20 PM 86.0 °F 91.8 °F 71.6 °F 62% 30.10 in 10.0 mi Calm Calm - N/A   Scattered Clouds
7:40 PM 84.2 °F 90.9 °F 73.4 °F 70% 30.10 in 10.0 mi Calm Calm - N/A   Scattered Clouds
8:00 PM 82.4 °F 88.2 °F 73.4 °F 74% 30.10 in 10.0 mi SW 5.8 mph - N/A   Clear
8:20 PM 82.4 °F 88.2 °F 73.4 °F 74% 30.10 in 10.0 mi SW 5.8 mph - N/A   Clear
8:40 PM 80.6 °F 83.9 °F 69.8 °F 70% 30.10 in 10.0 mi SW 6.9 mph - N/A   Clear
9:00 PM 80.6 °F 83.9 °F 69.8 °F 70% 30.11 in 10.0 mi SW 6.9 mph - N/A   Clear
9:20 PM 78.8 °F - 69.8 °F 74% 30.11 in 10.0 mi SW 4.6 mph - N/A   Clear
9:40 PM 78.8 °F - 69.8 °F 74% 30.11 in 10.0 mi SW 4.6 mph - N/A   Clear
10:00 PM 78.8 °F - 68.0 °F 69% 30.11 in 10.0 mi SW 3.5 mph - N/A   Clear
10:20 PM 78.8 °F - 68.0 °F 69% 30.11 in 10.0 mi Calm Calm - N/A   Clear
10:40 PM 77.0 °F - 68.0 °F 74% 30.10 in 10.0 mi SSW 4.6 mph - N/A   Clear
11:00 PM 77.0 °F - 68.0 °F 74% 30.10 in 10.0 mi SW 4.6 mph - N/A   Clear
11:20 PM 75.2 °F - 68.0 °F 78% 30.10 in 10.0 mi SSW 3.5 mph - N/A   Clear
11:40 PM 75.2 °F - 68.0 °F 78% 30.09 in 10.0 mi Calm Calm - N/A   Clear